Time,TemperatureF,DewpointF,PressureIn,WindDirection,WindDirectionDegrees,WindSpeedMPH,WindSpeedGustMPH,Humidity,HourlyPrecipIn,Conditions,Clouds,dailyrainin,SolarRadiationWatts/m^2,SoftwareType,DateUTC
2014-04-21 00:14:00,54.3,25.0,30.13,West,263,0.0,0.0,32,0.00,,,0.00,0,weatherlink.com 1.10,2014-04-21 04:14:00,
2014-04-21 00:29:00,53.7,26.0,30.13,West,263,0.0,0.0,34,0.00,,,0.00,0,weatherlink.com 1.10,2014-04-21 04:29:00,
2014-04-21 00:44:00,53.4,25.0,30.11,West,263,1.0,1.0,34,0.00,,,0.00,0,weatherlink.com 1.10,2014-04-21 04:44:00,
2014-04-21 00:59:00,52.8,26.0,30.10,East,84,0.0,2.0,36,0.00,,,0.00,0,weatherlink.com 1.10,2014-04-21 04:59:00,
2014-04-21 01:14:00,52.7,26.0,30.10,East,84,0.0,1.0,36,0.00,,,0.00,0,weatherlink.com 1.10,2014-04-21 05:14:00,
2014-04-21 01:31:00,52.2,30.0,30.09,East,84,0.0,1.0,42,0.00,,,0.00,0,weatherlink.com 1.10,2014-04-21 05:31:00,
2014-04-21 01:46:00,51.6,30.0,30.08,East,84,0.0,0.0,44,0.00,,,0.00,0,weatherlink.com 1.10,2014-04-21 05:46:00,
2014-04-21 02:00:00,50.8,35.0,30.08,East,84,0.0,0.0,55,0.00,,,0.00,0,weatherlink.com 1.10,2014-04-21 06:00:00,
2014-04-21 02:16:00,50.6,33.0,30.07,East,84,1.0,1.0,51,0.00,,,0.00,0,weatherlink.com 1.10,2014-04-21 06:16:00,
2014-04-21 02:31:00,50.6,34.0,30.05,East,84,0.0,0.0,53,0.00,,,0.00,0,weatherlink.com 1.10,2014-04-21 06:31:00,
2014-04-21 02:46:00,50.6,34.0,30.05,East,84,0.0,1.0,53,0.00,,,0.00,0,weatherlink.com 1.10,2014-04-21 06:46:00,
2014-04-21 03:02:00,50.4,34.0,30.04,East,84,0.0,0.0,54,0.00,,,0.00,0,weatherlink.com 1.10,2014-04-21 07:02:00,
2014-04-21 03:17:00,50.0,36.0,30.04,East,84,0.0,0.0,58,0.00,,,0.00,0,weatherlink.com 1.10,2014-04-21 07:17:00,
2014-04-21 03:32:00,50.1,36.0,30.03,East,84,0.0,2.0,58,0.00,,,0.00,0,weatherlink.com 1.10,2014-04-21 07:32:00,
2014-04-21 03:47:00,49.9,35.0,30.04,East,84,0.0,0.0,58,0.00,,,0.00,0,weatherlink.com 1.10,2014-04-21 07:47:00,
2014-04-21 04:04:00,49.2,37.0,30.03,East,84,0.0,0.0,62,0.00,,,0.00,0,weatherlink.com 1.10,2014-04-21 08:04:00,
2014-04-21 04:17:00,49.3,36.0,30.03,East,84,0.0,1.0,61,0.00,,,0.00,0,weatherlink.com 1.10,2014-04-21 08:17:00,
2014-04-21 04:34:00,48.6,37.0,30.03,East,84,0.0,0.0,65,0.00,,,0.00,0,weatherlink.com 1.10,2014-04-21 08:34:00,
2014-04-21 04:49:00,48.4,38.0,30.02,East,84,0.0,0.0,67,0.00,,,0.00,0,weatherlink.com 1.10,2014-04-21 08:49:00,
2014-04-21 05:04:00,48.5,37.0,30.02,East,84,0.0,2.0,65,0.00,,,0.00,0,weatherlink.com 1.10,2014-04-21 09:04:00,
2014-04-21 05:19:00,47.8,37.0,30.02,ENE,59,0.0,3.0,67,0.00,,,0.00,0,weatherlink.com 1.10,2014-04-21 09:19:00,
2014-04-21 05:34:00,47.5,37.0,30.02,ENE,59,0.0,1.0,68,0.00,,,0.00,0,weatherlink.com 1.10,2014-04-21 09:34:00,
2014-04-21 05:49:00,47.5,37.0,30.01,ENE,59,0.0,1.0,68,0.00,,,0.00,0,weatherlink.com 1.10,2014-04-21 09:49:00,
2014-04-21 06:04:00,47.5,38.0,30.02,ENE,59,0.0,0.0,69,0.00,,,0.00,0,weatherlink.com 1.10,2014-04-21 10:04:00,
2014-04-21 06:19:00,47.6,37.0,30.01,ENE,59,0.0,1.0,68,0.00,,,0.00,0,weatherlink.com 1.10,2014-04-21 10:19:00,
2014-04-21 06:36:00,48.0,38.0,30.02,ENE,59,0.0,0.0,68,0.00,,,0.00,0,weatherlink.com 1.10,2014-04-21 10:36:00,
2014-04-21 06:51:00,48.1,38.0,30.02,ENE,59,0.0,1.0,69,0.00,,,0.00,9,weatherlink.com 1.10,2014-04-21 10:51:00,
2014-04-21 07:06:00,48.1,39.0,30.02,ENE,59,0.0,1.0,70,0.00,,,0.00,18,weatherlink.com 1.10,2014-04-21 11:06:00,
2014-04-21 07:21:00,48.3,39.0,30.01,East,86,0.0,1.0,70,0.00,,,0.00,18,weatherlink.com 1.10,2014-04-21 11:21:00,
2014-04-21 07:36:00,49.0,38.0,30.01,East,86,1.0,1.0,67,0.00,,,0.00,33,weatherlink.com 1.10,2014-04-21 11:36:00,
2014-04-21 07:51:00,50.3,37.0,30.00,SE,134,0.0,3.0,61,0.00,,,0.00,90,weatherlink.com 1.10,2014-04-21 11:51:00,
2014-04-21 08:07:00,51.8,37.0,30.00,WSW,257,0.0,2.0,58,0.00,,,0.00,69,weatherlink.com 1.10,2014-04-21 12:07:00,
2014-04-21 08:22:00,52.3,37.0,30.00,West,271,0.0,3.0,56,0.00,,,0.00,105,weatherlink.com 1.10,2014-04-21 12:22:00,
2014-04-21 08:37:00,52.9,36.0,30.00,WSW,248,2.0,3.0,54,0.00,,,0.00,123,weatherlink.com 1.10,2014-04-21 12:37:00,
2014-04-21 08:52:00,53.3,36.0,29.99,WSW,242,2.0,5.0,53,0.00,,,0.00,146,weatherlink.com 1.10,2014-04-21 12:52:00,
2014-04-21 09:09:00,54.2,37.0,29.98,West,261,0.0,5.0,52,0.00,,,0.00,162,weatherlink.com 1.10,2014-04-21 13:09:00,
2014-04-21 09:24:00,55.4,37.0,29.98,WSW,247,3.0,4.0,50,0.00,,,0.00,281,weatherlink.com 1.10,2014-04-21 13:24:00,